Location: Hollin Hills
(38.7573°N, 77.0661°W)
Time: 13:30:04
(UTC+00:00)

ISS - Pass Details

Date: 23 April 2026
Orbit: 414 x 424 km, 51.6° (Epoch: 11 May)

Event Time Altitude Azimuth Distance (km) Brightness Sun altitude
Exits shadow 08:55:48 18° 300° (WNW) 1,088 -1.9 -15.9°
Maximum altitude 08:57:06 23° 333° (NNW) 942 -2.0 -15.7°
Drops below altitude 10° 08:59:52 10° 29° (NNE) 1,504 0.0 -15.3°
Sets 09:02:16 0° 44° (NE) 2,373 1.6 -14.9°
